Terminal Aerodrome Forecast
Issued by NWS State College, PA

Home | Current Version | Previous Version | Text Only | Print | Product List | Glossary On
Versions: 1 2 3 4 5 6 7 8 9 10 11 12 13 14 15 16 17 18 19 20 21 22 23 24 25 26 27 28 29 30 31 32 33 34 35 36 37 38 39 40 41 42 43 44 45 46 47 48 49 50
000
FTUS41 KCTP 212331
TAFMDT
TAF
KMDT 212331Z 2200/2224 03004KT P6SM SCT029 BKN200
     FM221200 08002KT P6SM SCT030
     FM221500 11002KT P6SM OVC050
      TEMPO 2215/2218 P6SM -RA OVC050=

USA.gov is the U.S. government's official web portal to all federal, state and local government web resources and services.